Flag for Macedonia, Republic of Weather past 2 weeks in Skopje, Macedonia, Republic of

Now
91 °F

Sunny.


Feels Like: 88 °F
Forecast: 61 / 92 °F
Wind: 2 mph from North

Location: Skopje-Petrovec

Current Time: Sep 5, 2015 at 12:44:55 PM

Latest Report: Sep 5, 2015 at 12:00 PM


Visibility: 10 mi

Pressure: 29.95 "Hg

Humidity: 24%

Dew point: 50 °F

Location of SkopjeLocation

Historic Weather in Skopje — Graph

°F

Skopje temperature yesterday

Maximum temperature yesterday: 97 °F (at 3:00 PM)
Minimum temperature yesterday: 61 °F (at 5:00 AM)
Average temperature yesterday: 79 °F

Past Weeks' High & Low Weather Summary

 TemperatureHumidityPressure
High99 °F (Sep 2, 4:00 PM)94% (Aug 24, 5:30 AM)30.27 "Hg (Aug 24, 5:30 AM)
Low55 °F (Aug 24, 5:30 AM)12% (Sep 1, 5:00 PM)29.80 "Hg (Sep 2, 4:00 PM)
Average76 °F48%30.03 "Hg
* Reported Aug 21 11:00 AM — Sep 5 11:30 AM, Skopje, Weather by CustomWeather, © 2015

Note: Actual official high and low records may vary slightly from our data, if they occured in-between our weather recording intervals... More about our weather records

Advertising

Skopje weather history for previous 24 hours

 ConditionsComfort  
Time TempWeatherWind HumidityBarometerVisibility
11:30 AM
Sat, Sep 5
88 °FSunny.2 mph27%29.98 "Hg10 mi
11:00 AM86 °FSunny.2 mph29%29.98 "Hg10 mi
10:30 AM82 °FSunny.1 mph32%29.98 "Hg10 mi
10:00 AM79 °FSunny.No wind37%29.98 "Hg10 mi
9:30 AM77 °FSunny.No wind39%30.01 "Hg10 mi
9:00 AM73 °FSunny.No wind47%30.01 "Hg10 mi
8:30 AM72 °FSunny.No wind47%30.01 "Hg10 mi
8:00 AM68 °FSunny.No wind53%30.01 "Hg10 mi
7:30 AM64 °FSunny.No wind64%30.01 "Hg10 mi
7:00 AM59 °FClear.2 mph72%30.01 "Hg10 mi
6:30 AM57 °FClear.No wind77%29.98 "Hg10 mi
6:00 AM59 °FPassing clouds.No wind72%29.98 "HgN/A
5:30 AM61 °FPassing clouds.No wind68%29.98 "HgN/A
5:00 AM61 °FClear.No wind68%29.98 "Hg10 mi
4:30 AM61 °FClear.No wind68%29.98 "Hg10 mi
4:00 AM63 °FClear.No wind64%29.98 "Hg10 mi
3:30 AM61 °FClear.2 mph77%29.98 "Hg10 mi
3:00 AM61 °FClear.2 mph77%29.98 "Hg10 mi
2:30 AM61 °FClear.2 mph77%29.98 "Hg10 mi
2:00 AM64 °FClear.2 mph60%29.95 "Hg10 mi
1:30 AM68 °FClear.2 mph56%29.95 "Hg10 mi
1:00 AM68 °FClear.2 mph56%29.95 "Hg10 mi
12:30 AM68 °FPassing clouds.2 mph56%29.95 "HgN/A
12:00 AM68 °FPassing clouds.2 mph56%29.95 "HgN/A
11:30 PM
Fri, Sep 4
70 °FPassing clouds.No wind50%29.95 "HgN/A
11:00 PM72 °FPassing clouds.No wind50%29.95 "HgN/A
10:30 PM73 °FPassing clouds.3 mph47%29.95 "HgN/A
10:00 PM73 °FPassing clouds.3 mph47%29.95 "HgN/A
9:30 PM73 °FPassing clouds.No wind47%29.95 "HgN/A
9:00 PM79 °FPassing clouds.No wind37%29.92 "HgN/A
8:30 PM79 °FPassing clouds.6 mph37%29.92 "HgN/A
8:00 PM81 °FPassing clouds.3 mph32%29.89 "HgN/A
7:30 PM84 °FPassing clouds.No wind29%29.89 "HgN/A
7:00 PM88 °FSunny.No wind24%29.86 "Hg10 mi
6:30 PM91 °FSunny.3 mph23%29.86 "Hg10 mi
6:00 PM95 °FSunny.2 mph20%29.86 "Hg10 mi
5:30 PM97 °FSunny.3 mph16%29.86 "Hg10 mi
5:00 PM97 °FSunny.5 mph13%29.86 "Hg10 mi
4:30 PM97 °FSunny.3 mph13%29.86 "Hg10 mi
4:00 PM97 °FSunny.3 mph13%29.86 "Hg10 mi
3:30 PM97 °FSunny.No wind18%29.89 "Hg10 mi
3:00 PM97 °FSunny.2 mph19%29.89 "Hg10 mi
2:30 PM95 °FSunny.2 mph22%29.92 "Hg10 mi
2:00 PM95 °FSunny.2 mph22%29.92 "Hg10 mi
1:30 PM93 °FSunny.No wind23%29.92 "Hg10 mi
1:00 PM91 °FSunny.2 mph26%29.95 "Hg10 mi
12:30 PM88 °FSunny.2 mph29%29.95 "Hg10 mi
Weather by CustomWeather, © 2015

See weather overviewHow to use our weather pages